Change the Weather History Date:

Monday, April 1, 2013

  Actual Average Record
Temperature  
Mean Temperature 51 °F -  
Max Temperature 63 °F 63 °F 88 °F (2012)
Min Temperature 41 °F 46 °F 36 °F (2009)
Degree Days  
Heating Degree Days 14    
Growing Degree Days 1 (Base 50)    
Moisture  
Dew Point 40 °F    
Average Humidity 78    
Maximum Humidity 100    
Minimum Humidity 41    
Precipitation  
Precipitation 0.00 in - - ()
Sea Level Pressure  
Sea Level Pressure 30.07 in    
Wind  
Wind Speed 3 mph (North)    
Max Wind Speed 14 mph    
Max Gust Speed 16 mph    
Visibility 5 miles    
Events Fog    
Averages and records for this station are not official NWS values.
T = Trace of Precipitation, MM = Missing Value Source: NWS Daily Summary

Daily Weather History Graph

Daily Weather History Graph

Search for Another Location

Airport or City:

Trip Planner

Search our weather history database for the weather conditions in past years. The results will help you decide how hot, cold, wet, or windy it might be!

Date:

Astronomy

Apr. 01, 2013 Rise Set
Actual Time 6:32 AM CDT 7:08 PM CDT
Civil Twilight 6:06 AM CDT 7:34 PM CDT
Nautical Twilight 5:35 AM CDT 8:04 PM CDT
Astronomical Twilight 5:04 AM CDT 8:35 PM CDT
Moon 12:07 AM CDT (4/1) 10:26 AM CDT (4/1)
Length of Visible Light 13h 27m
Length of Day
12h 36m
Waning Gibbous, 67% of the Moon is Illuminated
Apr 1
Waning Gibbous
Apr 2
Last Quarter
Apr 10
New
Apr 18
First Quarter
Apr 25
Full

Hourly Weather History & Observations

Time (CDT) Temp. Windchill Dew Point Humidity Pressure Visibility Wind Dir Wind Speed Gust Speed Precip Events Conditions
12:56 AM 44.6 °F - 44.6 °F 100% 29.94 in 0.2 mi Calm Calm - N/A Fog Fog
1:56 AM 45.0 °F - 45.0 °F 100% 29.97 in 0.2 mi Calm Calm - N/A Fog Fog
3:10 AM 44.6 °F - 44.6 °F 100% 29.95 in 0.2 mi Calm Calm - N/A Fog Fog
3:56 AM 42.8 °F - 42.8 °F 100% 29.96 in 0.2 mi Calm Calm - N/A Fog Fog
4:12 AM 42.8 °F - 42.8 °F 100% 29.96 in 0.2 mi Calm Calm - N/A Fog Fog
4:56 AM 41.9 °F - 41.9 °F 100% 30.00 in 0.2 mi Calm Calm - N/A Fog Fog
5:38 AM 42.8 °F - 42.8 °F 100% 29.98 in 0.5 mi Calm Calm - N/A Fog Fog
5:56 AM 41.9 °F - 41.9 °F 100% 30.02 in 0.5 mi Calm Calm - N/A Fog Fog
6:03 AM 42.8 °F - 42.8 °F 100% 29.99 in 1.0 mi Calm Calm - N/A   Overcast
6:10 AM 42.8 °F 40.1 °F 42.8 °F 100% 30.00 in 1.5 mi South 4.6 mph - N/A   Overcast
6:37 AM 41.0 °F - 41.0 °F 100% 30.01 in 2.0 mi Calm Calm - N/A   Overcast
6:47 AM 41.0 °F - 41.0 °F 100% 30.01 in 1.8 mi Calm Calm - N/A   Overcast
6:56 AM 41.0 °F - 41.0 °F 100% 30.05 in 1.0 mi Calm Calm - N/A   Overcast
7:24 AM 42.8 °F - 42.8 °F 100% 30.04 in 2.0 mi Calm Calm - N/A   Mostly Cloudy
7:56 AM 43.0 °F - 43.0 °F 100% 30.09 in 4.0 mi Calm Calm - N/A   Partly Cloudy
8:56 AM 47.8 °F - 47.8 °F 100% 30.10 in 10.0 mi Calm Calm - N/A   Partly Cloudy
9:56 AM 52.0 °F - 43.0 °F 71% 30.12 in 10.0 mi NNE 11.5 mph - N/A   Partly Cloudy
10:56 AM 54.9 °F - 38.8 °F 55% 30.14 in 10.0 mi North 11.5 mph - N/A   Clear
11:56 AM 57.9 °F - 37.9 °F 47% 30.14 in 10.0 mi NW 12.7 mph 16.1 mph N/A   Clear
1:56 PM 59.9 °F - 36.9 °F 42% 30.12 in 10.0 mi North 8.1 mph - N/A   Clear
3:56 PM 61.9 °F - 37.9 °F 41% 30.10 in 10.0 mi North 12.7 mph - N/A   Clear
4:56 PM 61.9 °F - 37.9 °F 41% 30.10 in 10.0 mi North 13.8 mph - N/A   Clear
5:56 PM 59.9 °F - 37.9 °F 44% 30.11 in 10.0 mi North 9.2 mph - N/A   Clear
6:56 PM 55.9 °F - 37.9 °F 51% 30.12 in 10.0 mi North 11.5 mph - N/A   Clear
7:56 PM 52.9 °F - 37.9 °F 57% 30.14 in 10.0 mi North 10.4 mph - N/A   Clear
8:56 PM 50.9 °F - 32.9 °F 50% 30.17 in 10.0 mi North 10.4 mph - N/A   Clear
9:56 PM 47.8 °F - 32.0 °F 54% 30.20 in 10.0 mi North 8.1 mph - N/A   Clear
10:56 PM 45.0 °F 41.8 °F 31.1 °F 58% 30.21 in 10.0 mi North 5.8 mph - N/A   Clear
11:56 PM 43.9 °F 39.9 °F 30.0 °F 58% 30.21 in 10.0 mi North 6.9 mph - N/A   Clear